EW5622 Weather Reports


time (UTC)temp
C
wind
direction
speed
KPH
gust
KPH
rain 1hr
cm
rain 24hr
cm
rain mn
cm
humidity
%
barometer
mb
20260504023603 14 202 0.0 1.6 0.00 1.07 0.86 98 1010.1
20260504022703 15 202 1.6 1.6 0.00 1.07 0.86 98 1010.1
20260504021805 14 0 0.0 0.0 0.00 1.07 0.86 98 1010.1
20260504020904 14 0 0.0 0.0 0.00 1.07 0.86 98 1009.1
20260504020213 14 0 0.0 0.0 0.00 1.07 0.86 98 1009.1
20260504015403 14 0 0.0 0.0 0.10 1.07 0.86 98 1009.1
20260504014503 14 0 0.0 0.0 0.23 1.07 0.86 98 1009.1
20260504013814 14 0 0.0 0.0 0.33 1.07 0.86 98 1010.1
20260504012705 14 0 0.0 0.0 0.86 1.07 0.86 98 1010.1
20260504011803 14 0 0.0 0.0 0.86 1.07 0.86 98 1009.1
20260504011113 14 0 0.0 0.0 0.86 1.07 0.86 98 1009.1
20260504010003 14 0 0.0 0.0 0.86 1.07 0.86 98 1009.1
20260504005405 14 0 0.0 0.0 0.76 0.97 0.76 98 1010.1
20260504004503 14 0 0.0 0.0 0.64 0.84 0.64 98 1010.1
20260504003603 14 0 0.0 0.0 0.53 0.74 0.53 98 1009.1
20260504002705 14 0 0.0 0.0 0.00 0.20 0.00 98 1009.1
20260504001803 14 0 0.0 0.0 0.00 0.20 0.00 98 1009.1
20260504000906 14 0 0.0 0.0 0.00 0.20 0.00 98 1009.1
20260504000003 14 0 0.0 0.0 0.00 0.20 0.00 98 1009.1
20260503235403 14 0 0.0 0.0 0.00 0.20 0.00 98 1009.1
20260503234503 14 0 0.0 0.0 0.00 0.20 0.00 98 1009.1
20260503233813 14 0 0.0 0.0 0.00 0.20 0.00 98 1010.1
20260503232705 14 0 0.0 0.0 0.00 0.20 0.00 98 1010.1
20260503231803 14 0 0.0 0.0 0.00 0.20 0.00 98 1010.1
20260503230905 14 0 0.0 0.0 0.00 0.20 0.00 98 1010.1
20260503230006 14 0 0.0 0.0 0.00 0.20 0.00 98 1010.1
20260503225403 14 0 0.0 0.0 0.00 0.20 0.00 98 1010.1
20260503224503 14 0 0.0 0.0 0.00 0.20 0.00 98 1010.1
20260503223603 15 0 0.0 0.0 0.00 0.20 0.00 98 1010.1
20260503222703 15 0 0.0 0.0 0.00 0.20 0.00 98 1010.1
20260503221804 15 0 0.0 0.0 0.00 0.20 0.00 98 1010.1
20260503220903 15 0 0.0 0.0 0.00 0.20 0.00 98 1010.1
20260503220004 15 0 0.0 0.0 0.00 0.20 0.00 98 1010.1
20260503215403 15 0 0.0 0.0 0.10 0.20 0.20 98 1010.1
20260503214503 15 0 0.0 0.0 0.10 0.20 0.20 98 1010.1
20260503213605 15 0 0.0 0.0 0.10 0.20 0.20 98 1011.1
20260503212915 15 0 0.0 0.0 0.10 0.20 0.20 98 1011.1
20260503211803 15 0 0.0 0.0 0.10 0.20 0.20 98 1011.1
20260503210903 16 0 0.0 0.0 0.20 0.20 0.20 98 1011.1
20260503210005 16 0 0.0 0.0 0.20 0.20 0.20 98 1011.1
20260503205403 16 0 0.0 0.0 0.10 0.10 0.10 98 1010.1
20260503204503 16 0 0.0 0.0 0.10 0.10 0.10 98 1010.1
20260503203603 16 0 0.0 0.0 0.10 0.10 0.10 98 1010.1
20260503202703 16 0 0.0 0.0 0.10 0.10 0.10 98 1010.1
20260503201804 16 0 0.0 0.0 0.10 0.10 0.10 98 1010.1
20260503200903 16 0 0.0 0.0 0.00 0.00 0.00 98 1010.1
20260503200215 16 0 0.0 0.0 0.00 0.00 0.00 97 1010.1
20260503195406 16 0 0.0 0.0 0.00 0.00 0.00 97 1009.1
20260503194503 16 0 0.0 0.0 0.00 0.00 0.00 96 1009.1
20260503193603 16 0 0.0 0.0 0.00 0.00 0.00 96 1009.1
20260503192703 16 0 0.0 0.0 0.00 0.00 0.00 96 1009.1
20260503191803 16 0 0.0 0.0 0.00 0.00 0.00 95 1009.1
20260503190903 16 0 0.0 0.0 0.00 0.00 0.00 95 1009.1
20260503190005 16 0 0.0 0.0 0.00 0.00 0.00 94 1009.1
20260503185405 16 0 0.0 0.0 0.00 0.00 0.00 94 1009.1
20260503184503 17 0 0.0 0.0 0.00 0.00 0.00 93 1009.1
20260503183603 17 0 0.0 0.0 0.00 0.00 0.00 93 1009.1
20260503182912 17 0 0.0 0.0 0.00 0.00 0.00 93 1009.1
20260503181804 17 0 0.0 0.0 0.00 0.00 0.00 92 1009.1
20260503180905 17 0 0.0 0.0 0.00 0.00 0.00 92 1009.1
20260503180004 17 0 0.0 0.0 0.00 0.00 0.00 92 1009.1
20260503175614 17 0 0.0 0.0 0.00 0.00 0.00 92 1009.1
20260503174506 17 0 0.0 0.0 0.00 0.00 0.00 92 1009.1
20260503173815 17 0 0.0 0.0 0.00 0.00 0.00 91 1009.1
20260503172703 17 0 0.0 0.0 0.00 0.10 0.00 91 1009.1
20260503171803 17 0 0.0 0.0 0.00 0.10 0.00 90 1009.1
20260503170905 17 0 0.0 0.0 0.00 0.10 0.00 90 1009.1
20260503150903 18 225 0.0 3.2 0.00 0.10 0.00 88 1010.1
20260503130903 20 0 0.0 0.0 0.00 0.41 0.00 84 1010.1
20260503090213 17 0 0.0 0.0 0.00 0.41 0.00 98 1012.1
20260503081113 16 0 0.0 0.0 0.00 0.41 0.00 98 1012.1
20260503072703 15 0 0.0 0.0 0.00 0.41 0.00 98 1012.1
20260503071805 15 0 0.0 0.0 0.00 0.41 0.00 98 1012.1
20260503070903 14 0 0.0 0.0 0.00 0.41 0.00 98 1011.1
20260503054503 11 0 0.0 0.0 0.00 0.41 0.00 98 1011.1
20260503053603 11 0 0.0 0.0 0.00 0.41 0.00 98 1011.1
20260503052703 11 0 0.0 0.0 0.00 0.41 0.00 98 1011.1
20260503052013 11 0 0.0 0.0 0.00 0.41 0.00 98 1011.1
20260503050903 11 0 0.0 0.0 0.00 0.41 0.00 98 1011.1
20260503050005 11 0 0.0 0.0 0.00 0.41 0.00 98 1011.1
20260503045405 11 0 0.0 0.0 0.00 0.41 0.00 98 1011.1
20260503044505 11 0 0.0 0.0 0.00 0.41 0.00 98 1011.1
20260503043814 11 0 0.0 0.0 0.00 0.41 0.00 98 1011.1
20260503042703 11 0 0.0 0.0 0.00 0.41 0.00 98 1011.1
20260503041805 11 0 0.0 0.0 0.00 0.41 0.00 98 1011.1
20260503040903 11 0 0.0 0.0 0.00 0.41 0.00 98 1011.1
20260503040213 11 0 0.0 0.0 0.00 0.41 0.00 98 1011.1
20260503035614 11 0 0.0 0.0 0.00 0.41 0.00 98 1011.1
20260503034505 11 0 0.0 0.0 0.00 0.41 0.00 98 1011.1
20260503033603 11 0 0.0 0.0 0.00 0.41 0.00 98 1011.1
20260503032913 11 0 0.0 0.0 0.00 0.41 0.00 98 1011.1
20260503031803 11 0 0.0 0.0 0.00 0.41 0.00 98 1011.1
20260503030903 11 0 0.0 0.0 0.00 0.41 0.00 98 1011.1
20260503030005 12 0 0.0 0.0 0.00 0.41 0.00 98 1011.1
20260503025614 12 0 0.0 0.0 0.00 0.41 0.00 98 1011.1
20260503024505 12 0 0.0 0.0 0.00 0.41 0.00 98 1011.1